Regional Weather Roundup
Issued by NWS Sioux Falls, SD

Home | Current Version | Previous Version | Graphics & Text | Print | Product List | Glossary On
Versions: 1 2 3 4 5 6 7 8 9 10 11 12 13 14 15 16 17 18 19 20 21 22 23 24 25 26 27 28 29 30 31 32 33 34 35 36 37 38 39 40 41 42 43 44 45 46 47 48 49 50
000
ASUS43 KFSD 231310
RWRFSD

WEATHER ROUNDUP FOR SE SOUTH DAKOTA/SW MINNESOTA/NW IOWA
NATIONAL WEATHER SERVICE SIOUX FALLS SD
800 AM CDT THU OCT 23 2014

NOTE: "FAIR" INDICATES FEW OR NO CLOUDS BELOW 12,000 FEET WITH NO
SIGNIFICANT WEATHER AND OR OBSTRUCTIONS TO VISIBILITY.


SDZ038>040-050-052>070-231400-
SOUTHEAST SOUTH DAKOTA

CITY           SKY/WX    TMP DP  RH WIND       PRES   REMARKS
CHAMBERLAIN    CLEAR     38  37  99 S3        29.99S
HURON          CLEAR     35  34  96 SE6       29.99R
MADISON        FAIR      41  41 100 SW8       30.00S
MITCHELL       CLEAR     40  39  97 S5        30.00S
SIOUX FALLS    FOG       42  41  96 CALM      30.01S VSB 1/4
WINNER         FAIR      49  43  80 SW13      29.99S
YANKTON          N/A     39  37  93 CALM      30.02F VSB 1/4
$$

MNZ071-072-080-081-089-090-097-098-231400-
SOUTHWEST MINNESOTA

CITY           SKY/WX    TMP DP  RH WIND       PRES   REMARKS
FAIRMONT       CLOUDY    54  48  82 W7        30.01R VSB 3/4
JACKSON        FOG       50  48  93 W3        30.02R VSB 1/2
LUVERNE        FOG       45  45 100 S3        30.03R VSB<1/4
MARSHALL       CLEAR     48  43  81 SW13      29.96F
MONTEVIDEO       N/A     43  43 100 SW3       29.98S FOG
PIPESTONE      FOG       46  46 100 CALM      30.01R VSB<1/4
REDWOOD FALLS  PTCLDY    46  45  96 SW8       29.98S FOG
TRACY          CLEAR     48  47  96 SW8       29.99S
WINDOM         FOG       48  48 100 SW7       30.01R VSB 1/4
WORTHINGTON    CLOUDY    48  46  93 SW3       30.02S VSB<1/4
$$

IAZ001>003-012>014-020>022-031-032-NEZ013-014-SDZ071-231400-
NORTHWEST IOWA

CITY           SKY/WX    TMP DP  RH WIND       PRES   REMARKS
CHEROKEE       FOG       50  50 100 W3        30.03R VSB<1/4
DENISON        CLOUDY    57  57 100 W5        30.01R FOG
ESTHERVILLE    FOG       50  50 100 NW7       30.01R VSB 1/2
LE MARS        FOG       50  50 100 CALM      30.04S VSB<1/4
ORANGE CITY    FOG       50  48  93 CALM      30.03S VSB<1/4
SHELDON        FOG       45  45 100 CALM      30.02R VSB<1/4
SIOUX CITY     FOG       47  46  97 CALM      30.04S VSB<1/4
SPENCER        FOG       50  49  96 NW6       30.03R VSB 1/4
STORM LAKE     CLOUDY    54  54 100 W5        30.03S FOG
$$

ABBREVIATIONS USED IN REMARKS
   TC - TEMPERATURE IN CELSIUS
  WCI - WIND CHILL INDEX
   HX - HEAT INDEX
  VSB - VISIBILITY




USA.gov is the U.S. government's official web portal to all federal, state and local government web resources and services.